Regional Weather Roundup
Issued by NWS

Home | Current Version | Previous Version | Text Only | Print | Product List | Glossary Off
Versions: 1 2 3 4 5 6 7 8 9 10 11 12 13 14 15 16 17 18 19 20 21 22 23 24 25 26 27 28 29 30 31 32 33 34 35 36 37 38 39 40 41 42 43 44 45 46 47 48 49 50

451
ASUS43 KIND 201500
RWRIN

WEATHER ROUNDUP FOR INDIANA
NATIONAL WEATHER SERVICE INDIANAPOLIS IN
1100 AM EDT SUN AUG 20 2017

NOTE: "FAIR" INDICATES FEW OR NO CLOUDS BELOW 12,000 FEET WITH NO
SIGNIFICANT WEATHER AND/OR OBSTRUCTIONS TO VISIBILITY.

* - STATION DOES NOT REPORT WEATHER SUCH AS PRECIPITATION OR FOG.

+ - STATION NOT QUALITY CONTROLLED BY THE NATIONAL WEATHER SERVICE.
    USE DATA WITH CAUTION...ESPECIALLY DEWPOINT AND RELATIVE
    HUMIDITY OBSERVATIONS.

INZ001>003-010>013-019-020-201600-
NORTHWEST INDIANA

CITY           SKY/WX    TMP DP  RH WIND       PRES   REMARKS
GARY /AIRPORT/ PTSUNNY   79  61  53 S6        30.07R
MONTICELLO +   SUNNY     76  67  72 S3        30.07R

$$

LMZ046-743>745-201600-
SOUTHERN LAKE MICHIGAN

STATION/POSITION TIME  TEMP    WIND        PRES    WAVE
                       AIR SEA DIR/SP/G            HT
                 (UTC) (F)     (DEG/KT/KT) (MB)    (FT)
BURNS HARBOR     1440   78     190/ 10/ 12 1018.6R
MICHIGAN CITY    1430   75     170/ 11/ 13   N/A
5NW MICH CITY    1450   75 74  180/ 10/ 12   N/A     1

$$

INZ004-005-014>016-021>024-201600-
NORTH CENTRAL INDIANA

CITY           SKY/WX    TMP DP  RH WIND       PRES   REMARKS
GOSHEN         SUNNY     77  61  57 S8        30.09R
PERU/GRISSOM   SUNNY     78  68  72 SW5       30.08R
SOUTH BEND     SUNNY     78  63  59 S10       30.09R

$$

INZ006>009-017-018-025>027-201600-
NORTHEAST INDIANA

CITY           SKY/WX    TMP DP  RH WIND       PRES   REMARKS
FORT WAYNE     MOSUNNY   78  64  61 VRB6      30.10R

$$

INZ028-029-035-036-043>045-051>053-201600-
WEST CENTRAL INDIANA

CITY           SKY/WX    TMP DP  RH WIND       PRES   REMARKS
LAFAYETTE      SUNNY     79  70  74 VRB5      30.06S
TERRE HAUTE    SUNNY     83  71  67 S5        30.06S

$$

INZ030>032-037>040-046>048-054>057-064-065-201600-
CENTRAL INDIANA

CITY           SKY/WX    TMP DP  RH WIND       PRES   REMARKS
COLUMBUS       SUNNY     81  68  65 SW6       30.08S
GREENWOOD *+   SUNNY     80  68  68 CALM      30.09S
INDIANAPOLIS   MOSUNNY   81  69  67 S5        30.07S
-EAGLE CREEK   SUNNY     82  68  62 W3        30.07S
KOKOMO +       SUNNY     77  70  79 S6        30.09R
MT COMFORT *+  SUNNY     77  70  78 CALM      30.09R
SHELBYVILLE    SUNNY     80  70  71 S5        30.08R

$$

INZ033-034-041-042-049-050-058-059-201600-
EAST CENTRAL INDIANA

CITY           SKY/WX    TMP DP  RH WIND       PRES   REMARKS
MUNCIE         SUNNY     81  68  64 SW7       30.09R
RICHMOND +     SUNNY     77  70  78 S5        30.11S

$$

INZ060-061-067>069-081>083-085>088-201600-
SOUTHWEST INDIANA

CITY           SKY/WX    TMP DP  RH WIND       PRES   REMARKS
EVANSVILLE     PTSUNNY   78  72  81 VRB3      30.08R
HUNTINGBURG +  CLOUDY    74  72  93 MISG      30.09S

$$

INZ062-063-066-070>080-084-089>092-201600-
SOUTH CENTRAL AND SOUTHEAST INDIANA

CITY           SKY/WX    TMP DP  RH WIND       PRES   REMARKS
BLOOMINGTON    CLOUDY    84  69  60 W5        30.08S
MADISON *+     SUNNY     82  70  65 SW3       30.11S
SEYMOUR +      SUNNY     84  70  61 W3        30.09R

$$





USA.gov is the U.S. government's official web portal to all federal, state and local government web resources and services.